Location: Congrier
(47.8099°N, 1.1170°W)
Time: 18:38:05
(UTC+00:00)

NOSS 2-1 (C) - Visible Passes

Search period start: 01 October 2023 00:00
Search period end: 11 October 2023 00:00
Orbit: 404 x 1756 km, 63.3° (Epoch: 25 September)

Date Brightness Start Highest point End Pass type
(mag) Time Alt. Az. Time Alt. Az. Time Alt. Az.
02 Oct 5.9 04:49:02 10° N 04:50:42 12° NNE 04:52:33 10° NE visible
04 Oct 5.8 04:53:30 10° NNW 04:56:14 19° NE 04:59:28 10° E visible
05 Oct 6.0 04:01:56 10° N 04:03:25 12° NNE 04:05:01 10° NE visible
06 Oct 5.4 04:58:11 10° NNW 05:01:34 29° NE 05:05:53 10° E visible
07 Oct 5.9 04:06:16 10° N 04:08:53 18° NNE 04:11:58 10° ENE visible
08 Oct 6.2 03:14:48 10° N 03:16:00 11° NNE 03:17:22 10° NE visible
08 Oct 4.6 05:02:56 10° NNW 05:06:44 48° NE 05:11:53 10° ESE visible
09 Oct 5.5 04:10:54 10° NNW 04:14:10 27° NE 04:18:22 10° E visible
10 Oct 5.9 03:20:10 15° N 03:21:26 17° NNE 03:24:20 10° ENE visible
10 Oct 3.8 05:07:46 10° NW 05:11:48 85° NE 05:17:25 10° SE visible
